Forks, WA

7:56 PM PST on February 19, 2017 (GMT -0800)
Quillayute

Weather History for KUIL - March, 2012

Change the Weather History Date:

Monday, March 5, 2012

  Actual Average Record
Temperature  
Mean Temperature 41 °F 43 °F  
Max Temperature 45 °F 50 °F 63 °F (2016)
Min Temperature 37 °F 36 °F 21 °F (1976)
Degree Days  
Heating Degree Days 24 22  
Month to date heating degree days 110  
Since 1 July heating degree days 3955  
Cooling Degree Days 0 0  
Month to date cooling degree days 0  
Year to date cooling degree days 0  
Moisture  
Dew Point 36 °F    
Average Humidity 85    
Maximum Humidity 100    
Minimum Humidity 41    
Precipitation  
Precipitation 1.17 in 0.36 in 1.65 in (2014)
Month to date precipitation 1.83  
Year to date precipitation 26.79  
Sea Level Pressure  
Sea Level Pressure 29.81 in    
Wind  
Wind Speed 12 mph (West)    
Max Wind Speed 22 mph    
Max Gust Speed 32 mph    
Visibility 7 miles    
Events Rain    
T = Trace of Precipitation, MM = Missing Value Source: NWS Daily Summary

Daily Weather History Graph

Daily Weather History Graph

Search for Another Location

Airport or City:

Trip Planner

Search our weather history database for the weather conditions in past years. The results will help you decide how hot, cold, wet, or windy it might be!

Date:

Astronomy

Mar. 05, 2012 Rise Set
Actual Time 6:50 AM PST 6:09 PM PST
Civil Twilight 6:19 AM PST 6:40 PM PST
Nautical Twilight 5:43 AM PST 7:16 PM PST
Astronomical Twilight 5:07 AM PST 7:52 PM PST
Moon 3:25 PM PST (3/5) 5:03 AM PST (3/5)
Length of Visible Light 12h 21m
Length of Day
11h 19m
Waxing Gibbous, 91% of the Moon is Illuminated
Mar 5
Waxing Gibbous
Mar 8
Full
Mar 14
Last Quarter
Mar 22
New
Mar 30
First Quarter

Hourly Weather History & Observations

Time (PST) Temp. Windchill Dew Point Humidity Pressure Visibility Wind Dir Wind Speed Gust Speed Precip Events Conditions
12:29 AM 44.6 °F 38.4 °F 44.6 °F 100% 29.90 in 3.0 mi South 12.7 mph 25.3 mph 0.14 in Rain Rain
12:53 AM 45.0 °F 38.2 °F 45.0 °F 100% 29.89 in 3.0 mi South 15.0 mph 24.2 mph 0.24 in Rain Rain
1:03 AM 44.6 °F 38.4 °F 44.6 °F 100% 29.89 in 2.5 mi South 12.7 mph 21.9 mph 0.05 in Rain Rain
1:31 AM 44.6 °F 38.1 °F 44.6 °F 100% 29.87 in 3.0 mi South 13.8 mph 21.9 mph 0.17 in Rain Rain
1:38 AM 44.6 °F 39.7 °F 44.6 °F 100% 29.86 in 2.5 mi South 9.2 mph 21.9 mph 0.20 in Rain Rain
1:53 AM 45.0 °F 38.5 °F 45.0 °F 100% 29.86 in 3.0 mi South 13.8 mph 24.2 mph 0.26 in Rain Rain
2:00 AM - - - N/A% - - North - - N/A   Unknown
2:53 AM 45.0 °F 38.2 °F 45.0 °F 100% 29.81 in 4.0 mi South 15.0 mph 25.3 mph 0.19 in Rain Rain
3:53 AM 45.0 °F 39.3 °F 45.0 °F 100% 29.77 in 2.5 mi South 11.5 mph 24.2 mph 0.18 in Rain Rain
4:45 AM 44.6 °F 39.2 °F 44.6 °F 100% 29.74 in 4.0 mi South 10.4 mph 24.2 mph 0.15 in Rain Rain
4:49 AM 44.6 °F 39.2 °F 44.6 °F 100% 29.73 in 4.0 mi SSW 10.4 mph 23.0 mph 0.15 in Rain Rain
4:53 AM 45.0 °F 38.2 °F 45.0 °F 100% 29.74 in 5.0 mi SSW 15.0 mph 24.2 mph 0.17 in Rain Light Rain
5:13 AM 42.8 °F 38.6 °F 42.8 °F 100% 29.74 in 2.5 mi WNW 6.9 mph - 0.04 in Rain Light Rain
5:21 AM 42.8 °F 37.0 °F 42.8 °F 100% 29.74 in 2.5 mi NW 10.4 mph 17.3 mph 0.05 in Rain Light Rain
5:26 AM 41.0 °F 35.2 °F 41.0 °F 100% 29.74 in 3.0 mi NW 9.2 mph 17.3 mph 0.05 in Rain Light Rain
5:36 AM 39.2 °F 32.5 °F 39.2 °F 100% 29.74 in 3.0 mi WNW 10.4 mph - 0.08 in Rain Light Rain
5:45 AM 39.2 °F 33.0 °F 39.2 °F 100% 29.74 in 4.0 mi West 9.2 mph - 0.08 in Rain Light Rain
5:53 AM 39.9 °F 35.8 °F 39.9 °F 100% 29.74 in 4.0 mi NW 5.8 mph - 0.09 in Rain Light Rain
6:53 AM 39.0 °F 33.4 °F 37.9 °F 96% 29.75 in 3.0 mi WNW 8.1 mph - 0.05 in Rain Light Rain
7:10 AM 37.4 °F 32.8 °F 37.4 °F 100% 29.75 in 6.0 mi WNW 5.8 mph 16.1 mph 0.01 in Rain Light Rain
7:18 AM 37.4 °F 34.9 °F 37.4 °F 100% 29.75 in 8.0 mi West 3.5 mph - 0.01 in   Overcast
7:26 AM 37.4 °F 34.9 °F 37.4 °F 100% 29.75 in 7.0 mi West 3.5 mph - 0.01 in Rain Light Rain
7:34 AM 37.4 °F 32.1 °F 37.4 °F 100% 29.75 in 10.0 mi WNW 6.9 mph - 0.01 in   Overcast
7:48 AM 37.4 °F 30.8 °F 37.4 °F 100% 29.76 in 10.0 mi WNW 9.2 mph - 0.01 in   Overcast
7:53 AM 37.9 °F 32.1 °F 37.0 °F 97% 29.77 in 10.0 mi WNW 8.1 mph - 0.01 in   Overcast
8:21 AM 37.4 °F 29.8 °F 35.6 °F 93% 29.77 in 10.0 mi West 11.5 mph 23.0 mph N/A   Overcast
8:53 AM 37.0 °F 30.4 °F 33.1 °F 86% 29.79 in 10.0 mi West 9.2 mph - N/A   Overcast
9:53 AM 39.9 °F 32.9 °F 32.0 °F 73% 29.81 in 10.0 mi West 11.5 mph 18.4 mph N/A   Mostly Cloudy
10:53 AM 39.9 °F 32.5 °F 32.0 °F 73% 29.82 in 10.0 mi West 12.7 mph 20.7 mph N/A   Mostly Cloudy
11:53 AM 39.9 °F 33.4 °F 30.0 °F 68% 29.83 in 10.0 mi West 10.4 mph - N/A   Overcast
12:53 PM 43.0 °F 36.8 °F 30.9 °F 62% 29.83 in 10.0 mi WNW 11.5 mph 24.2 mph N/A   Mostly Cloudy
1:53 PM 43.0 °F 36.4 °F 30.0 °F 60% 29.84 in 10.0 mi WNW 12.7 mph 23.0 mph N/A   Mostly Cloudy
2:53 PM 44.1 °F 38.1 °F 30.0 °F 58% 29.84 in 10.0 mi WNW 11.5 mph 29.9 mph N/A   Mostly Cloudy
3:53 PM 42.1 °F 33.3 °F 30.0 °F 62% 29.85 in 10.0 mi WNW 19.6 mph 27.6 mph N/A   Mostly Cloudy
4:53 PM 41.0 °F 33.5 °F 30.0 °F 65% 29.86 in 10.0 mi NW 13.8 mph 25.3 mph N/A   Mostly Cloudy
5:53 PM 39.0 °F 33.4 °F 30.0 °F 70% 29.86 in 10.0 mi West 8.1 mph 20.7 mph N/A   Scattered Clouds
6:53 PM 39.9 °F 32.5 °F 28.9 °F 65% 29.87 in 10.0 mi WNW 12.7 mph 23.0 mph N/A   Mostly Cloudy
7:53 PM 39.9 °F 33.4 °F 28.0 °F 63% 29.88 in 10.0 mi NW 10.4 mph 21.9 mph N/A   Mostly Cloudy
8:53 PM 39.9 °F 31.4 °F 25.0 °F 55% 29.88 in 10.0 mi WNW 16.1 mph 26.5 mph N/A   Mostly Cloudy
9:53 PM 39.9 °F 31.1 °F 18.0 °F 41% 29.89 in 10.0 mi WNW 17.3 mph 31.1 mph 0.00 in   Overcast
10:53 PM 39.0 °F 32.3 °F 19.0 °F 45% 29.91 in 10.0 mi NNW 10.4 mph - N/A   Scattered Clouds
11:53 PM 39.0 °F 32.8 °F 23.0 °F 53% 29.92 in 10.0 mi NW 9.2 mph - N/A   Mostly Cloudy